Time,TemperatureF,DewpointF,PressureIn,WindDirection,WindDirectionDegrees,WindSpeedMPH,WindSpeedGustMPH,Humidity,HourlyPrecipIn,Conditions,Clouds,dailyrainin,SoftwareType,DateUTC
2013-11-28 00:00:00,50.3,45.4,30.19,West,270,0.2,1.7,81,0.00,,,0.00,JAVA,2013-11-28 05:00:00,
2013-11-28 00:01:00,50.3,45.4,30.19,NW,315,0.2,1.3,81,0.00,,,0.00,JAVA,2013-11-28 05:01:00,
2013-11-28 00:03:00,50.2,45.3,30.20,NNW,337,0.1,0.2,81,0.00,,,0.00,JAVA,2013-11-28 05:03:00,
2013-11-28 00:04:00,50.2,45.3,30.20,WSW,247,0.1,0.4,81,0.00,,,0.00,JAVA,2013-11-28 05:04:00,
2013-11-28 00:05:00,50.2,45.2,30.19,NNW,337,0.1,0.4,82,0.00,,,0.00,JAVA,2013-11-28 05:05:00,
2013-11-28 00:11:00,50.2,45.1,30.19,NW,315,0.1,1.3,82,0.00,,,0.00,JAVA,2013-11-28 05:11:00,
2013-11-28 00:16:00,50.1,45.0,30.20,WNW,292,0.5,1.3,82,0.00,,,0.00,JAVA,2013-11-28 05:16:00,
2013-11-28 00:21:00,50.0,45.0,30.20,West,270,0.3,2.5,83,0.00,,,0.00,JAVA,2013-11-28 05:21:00,
2013-11-28 00:26:00,49.7,44.9,30.20,North,0,0.2,0.9,83,0.00,,,0.00,JAVA,2013-11-28 05:26:00,
2013-11-28 00:31:00,49.4,44.8,30.20,WNW,292,0.2,1.1,83,0.00,,,0.00,JAVA,2013-11-28 05:31:00,
2013-11-28 00:36:00,49.2,44.8,30.20,West,270,0.1,0.3,83,0.00,,,0.00,JAVA,2013-11-28 05:36:00,
2013-11-28 00:41:00,49.0,44.7,30.20,North,0,0.0,0.2,83,0.00,,,0.00,JAVA,2013-11-28 05:41:00,
2013-11-28 00:46:00,48.7,44.6,30.20,NW,315,0.1,1.0,83,0.00,,,0.00,JAVA,2013-11-28 05:46:00,
2013-11-28 00:51:00,48.3,44.4,30.20,NW,315,0.2,0.4,83,0.00,,,0.00,JAVA,2013-11-28 05:51:00,
2013-11-28 00:56:00,48.0,44.2,30.19,WNW,292,0.2,1.2,83,0.00,,,0.00,JAVA,2013-11-28 05:56:00,
2013-11-28 01:02:00,47.6,43.9,30.19,NW,315,0.7,1.6,83,0.00,,,0.00,JAVA,2013-11-28 06:02:00,
2013-11-28 01:07:00,47.4,43.6,30.19,WNW,292,0.1,1.0,83,0.00,,,0.00,JAVA,2013-11-28 06:07:00,
2013-11-28 01:12:00,47.1,43.4,30.20,NW,315,0.1,0.3,83,0.00,,,0.00,JAVA,2013-11-28 06:12:00,
2013-11-28 01:17:00,46.9,43.1,30.20,North,0,0.4,1.4,83,0.00,,,0.00,JAVA,2013-11-28 06:17:00,
2013-11-28 01:22:00,46.6,42.8,30.20,North,0,0.4,1.6,83,0.00,,,0.00,JAVA,2013-11-28 06:22:00,
2013-11-28 01:27:00,46.5,42.5,30.20,SW,225,0.5,1.0,83,0.00,,,0.00,JAVA,2013-11-28 06:27:00,
2013-11-28 01:32:00,46.3,42.3,30.20,SW,225,0.4,1.4,84,0.00,,,0.00,JAVA,2013-11-28 06:32:00,
2013-11-28 01:38:00,46.0,42.0,30.20,SSW,202,1.0,4.3,84,0.00,,,0.00,JAVA,2013-11-28 06:38:00,
2013-11-28 01:43:00,45.7,41.8,30.20,West,270,0.6,2.0,84,0.00,,,0.00,JAVA,2013-11-28 06:43:00,
2013-11-28 01:48:00,45.5,41.7,30.20,North,0,0.8,1.8,84,0.00,,,0.00,JAVA,2013-11-28 06:48:00,
2013-11-28 01:53:00,45.5,41.5,30.21,North,0,0.5,2.1,84,0.00,,,0.00,JAVA,2013-11-28 06:53:00,
2013-11-28 01:58:00,45.3,41.3,30.20,NW,315,0.7,2.3,84,0.00,,,0.00,JAVA,2013-11-28 06:58:00,
2013-11-28 02:03:00,45.2,41.1,30.21,WSW,247,0.3,0.8,84,0.00,,,0.00,JAVA,2013-11-28 07:03:00,
2013-11-28 02:08:00,44.9,41.0,30.21,North,0,0.4,2.1,83,0.00,,,0.00,JAVA,2013-11-28 07:08:00,
2013-11-28 02:14:00,44.8,40.8,30.21,NNW,337,0.2,0.8,83,0.00,,,0.00,JAVA,2013-11-28 07:14:00,
2013-11-28 02:19:00,44.8,40.6,30.20,NW,315,0.1,0.4,83,0.00,,,0.00,JAVA,2013-11-28 07:19:00,
2013-11-28 02:24:00,44.7,40.4,30.21,NW,315,0.1,0.4,83,0.00,,,0.00,JAVA,2013-11-28 07:24:00,
2013-11-28 02:29:00,44.7,40.3,30.21,North,0,0.3,0.7,83,0.00,,,0.00,JAVA,2013-11-28 07:29:00,
2013-11-28 02:34:00,44.6,40.1,30.21,NE,45,0.1,0.7,82,0.00,,,0.00,JAVA,2013-11-28 07:34:00,
2013-11-28 02:39:00,44.6,40.0,30.21,NNW,337,0.2,1.1,82,0.00,,,0.00,JAVA,2013-11-28 07:39:00,
2013-11-28 02:44:00,44.5,39.9,30.21,NW,315,0.1,0.3,82,0.00,,,0.00,JAVA,2013-11-28 07:44:00,
2013-11-28 02:49:00,44.5,39.7,30.22,WSW,247,0.0,0.1,82,0.00,,,0.00,JAVA,2013-11-28 07:49:00,
2013-11-28 02:55:00,44.4,39.6,30.21,North,0,0.1,0.6,82,0.00,,,0.00,JAVA,2013-11-28 07:55:00,
2013-11-28 03:00:00,44.4,39.5,30.21,WNW,292,0.1,0.5,82,0.00,,,0.00,JAVA,2013-11-28 08:00:00,
2013-11-28 03:05:00,44.3,39.5,30.22,NW,315,0.3,0.3,82,0.00,,,0.00,JAVA,2013-11-28 08:05:00,
2013-11-28 03:10:00,44.2,39.4,30.22,North,0,0.1,0.4,83,0.00,,,0.00,JAVA,2013-11-28 08:10:00,
2013-11-28 03:15:00,44.2,39.3,30.22,East,90,0.0,0.1,83,0.00,,,0.00,JAVA,2013-11-28 08:15:00,
2013-11-28 03:20:00,44.0,39.3,30.22,West,270,0.2,0.4,83,0.00,,,0.00,JAVA,2013-11-28 08:20:00,
2013-11-28 03:25:00,44.0,39.3,30.22,East,90,0.0,0.0,83,0.00,,,0.00,JAVA,2013-11-28 08:25:00,
2013-11-28 03:31:00,43.8,39.2,30.22,North,0,0.0,0.0,84,0.00,,,0.00,JAVA,2013-11-28 08:31:00,
2013-11-28 03:36:00,43.7,39.2,30.22,North,0,0.0,0.1,84,0.00,,,0.00,JAVA,2013-11-28 08:36:00,
2013-11-28 03:41:00,43.6,39.2,30.23,NW,315,0.0,0.1,84,0.00,,,0.00,JAVA,2013-11-28 08:41:00,
2013-11-28 03:46:00,43.6,39.2,30.23,NW,315,0.1,0.8,84,0.00,,,0.00,JAVA,2013-11-28 08:46:00,
2013-11-28 03:51:00,43.6,39.2,30.22,NW,315,0.0,0.1,85,0.00,,,0.00,JAVA,2013-11-28 08:51:00,
2013-11-28 03:56:00,43.6,39.2,30.23,West,270,0.1,0.4,85,0.00,,,0.00,JAVA,2013-11-28 08:56:00,
2013-11-28 04:01:00,43.6,39.2,30.23,WNW,292,0.0,0.1,85,0.00,,,0.00,JAVA,2013-11-28 09:01:00,
2013-11-28 04:06:00,43.5,39.2,30.23,North,0,0.0,0.2,85,0.00,,,0.00,JAVA,2013-11-28 09:06:00,
2013-11-28 04:12:00,43.5,39.2,30.23,NW,315,0.0,0.1,86,0.00,,,0.00,JAVA,2013-11-28 09:12:00,
2013-11-28 04:17:00,43.4,39.2,30.23,WNW,292,0.0,0.0,86,0.00,,,0.00,JAVA,2013-11-28 09:17:00,
2013-11-28 04:22:00,43.3,39.3,30.23,West,270,0.1,0.6,86,0.00,,,0.00,JAVA,2013-11-28 09:22:00,
2013-11-28 04:27:00,43.3,39.3,30.23,West,270,0.0,0.2,86,0.00,,,0.00,JAVA,2013-11-28 09:27:00,
2013-11-28 04:32:00,43.1,39.3,30.24,NW,315,0.1,0.8,86,0.00,,,0.00,JAVA,2013-11-28 09:32:00,
2013-11-28 04:37:00,43.0,39.3,30.23,NW,315,0.1,0.5,87,0.00,,,0.00,JAVA,2013-11-28 09:37:00,
2013-11-28 04:42:00,42.9,39.3,30.23,NW,315,0.0,0.3,87,0.00,,,0.00,JAVA,2013-11-28 09:42:00,
2013-11-28 04:47:00,42.8,39.3,30.24,NNW,337,0.1,0.4,87,0.00,,,0.00,JAVA,2013-11-28 09:47:00,
2013-11-28 04:53:00,42.8,39.2,30.24,West,270,0.0,0.1,87,0.00,,,0.00,JAVA,2013-11-28 09:53:00,
2013-11-28 04:58:00,42.8,39.2,30.23,North,0,0.1,0.3,87,0.00,,,0.00,JAVA,2013-11-28 09:58:00,
2013-11-28 05:03:00,42.8,39.2,30.24,WNW,292,0.0,0.2,87,0.00,,,0.00,JAVA,2013-11-28 10:03:00,
2013-11-28 05:08:00,42.7,39.1,30.23,North,0,0.1,0.3,87,0.00,,,0.00,JAVA,2013-11-28 10:08:00,
2013-11-28 05:13:00,42.7,39.1,30.23,NW,315,0.1,0.2,87,0.00,,,0.00,JAVA,2013-11-28 10:13:00,
2013-11-28 05:18:00,42.7,39.1,30.24,WSW,247,0.0,0.0,87,0.00,,,0.00,JAVA,2013-11-28 10:18:00,
2013-11-28 05:23:00,42.7,39.0,30.24,NW,315,0.1,0.1,87,0.00,,,0.00,JAVA,2013-11-28 10:23:00,
2013-11-28 05:29:00,42.8,39.0,30.24,NW,315,0.1,0.4,87,0.00,,,0.00,JAVA,2013-11-28 10:29:00,
2013-11-28 05:34:00,42.8,39.0,30.24,WNW,292,0.1,0.6,87,0.00,,,0.00,JAVA,2013-11-28 10:34:00,
2013-11-28 05:39:00,42.7,39.0,30.25,West,270,0.1,0.7,87,0.00,,,0.00,JAVA,2013-11-28 10:39:00,
2013-11-28 05:44:00,42.6,39.0,30.24,WNW,292,0.0,0.0,88,0.00,,,0.00,JAVA,2013-11-28 10:44:00,
2013-11-28 05:49:00,42.6,39.1,30.25,NW,315,0.1,0.5,88,0.00,,,0.00,JAVA,2013-11-28 10:49:00,
2013-11-28 05:55:00,42.6,39.1,30.25,North,0,0.0,0.0,88,0.00,,,0.00,JAVA,2013-11-28 10:55:00,
2013-11-28 06:00:00,42.6,39.1,30.25,NNW,337,0.0,0.3,88,0.00,,,0.00,JAVA,2013-11-28 11:00:00,
2013-11-28 06:05:00,42.6,39.1,30.25,NW,315,0.0,0.0,88,0.00,,,0.00,JAVA,2013-11-28 11:05:00,
2013-11-28 06:10:00,42.6,39.1,30.26,West,270,0.0,0.0,88,0.00,,,0.00,JAVA,2013-11-28 11:10:00,
2013-11-28 06:15:00,42.7,39.2,30.26,SW,225,0.1,0.4,88,0.00,,,0.00,JAVA,2013-11-28 11:15:00,
2013-11-28 06:20:00,42.7,39.2,30.25,WNW,292,0.1,0.5,88,0.00,,,0.00,JAVA,2013-11-28 11:20:00,
2013-11-28 06:25:00,42.7,39.2,30.26,West,270,0.0,0.0,88,0.00,,,0.00,JAVA,2013-11-28 11:25:00,
2013-11-28 06:31:00,42.7,39.2,30.26,West,270,0.1,0.7,88,0.00,,,0.00,JAVA,2013-11-28 11:31:00,
2013-11-28 06:36:00,42.6,39.3,30.26,SW,225,0.0,0.0,89,0.00,,,0.00,JAVA,2013-11-28 11:36:00,
2013-11-28 06:41:00,42.6,39.3,30.26,West,270,0.0,0.0,89,0.00,,,0.00,JAVA,2013-11-28 11:41:00,
2013-11-28 06:46:00,42.7,39.4,30.26,SW,225,0.0,0.1,89,0.00,,,0.00,JAVA,2013-11-28 11:46:00,
2013-11-28 06:51:00,42.7,39.4,30.27,NW,315,0.0,0.2,89,0.00,,,0.00,JAVA,2013-11-28 11:51:00,
2013-11-28 06:56:00,42.6,39.5,30.27,SSW,202,0.0,0.1,89,0.00,,,0.00,JAVA,2013-11-28 11:56:00,
2013-11-28 07:01:00,42.5,39.5,30.28,WNW,292,0.0,0.0,89,0.00,,,0.00,JAVA,2013-11-28 12:01:00,
2013-11-28 07:06:00,42.6,39.5,30.28,NW,315,0.0,0.0,90,0.00,,,0.00,JAVA,2013-11-28 12:06:00,
2013-11-28 07:12:00,42.6,39.6,30.28,North,0,0.0,0.0,90,0.00,,,0.00,JAVA,2013-11-28 12:12:00,
2013-11-28 07:17:00,42.7,39.6,30.28,NW,315,0.0,0.1,90,0.00,,,0.00,JAVA,2013-11-28 12:17:00,
2013-11-28 07:22:00,42.7,39.7,30.28,NNW,337,0.0,0.0,90,0.00,,,0.00,JAVA,2013-11-28 12:22:00,
2013-11-28 07:27:00,42.9,39.8,30.28,South,180,0.1,0.4,91,0.00,,,0.00,JAVA,2013-11-28 12:27:00,
2013-11-28 07:32:00,43.3,39.9,30.29,West,270,0.0,0.0,91,0.00,,,0.00,JAVA,2013-11-28 12:32:00,
2013-11-28 07:37:00,43.6,40.0,30.28,SW,225,0.0,0.0,91,0.00,,,0.00,JAVA,2013-11-28 12:37:00,
2013-11-28 07:42:00,43.9,40.2,30.29,WNW,292,0.0,0.1,91,0.00,,,0.00,JAVA,2013-11-28 12:42:00,
2013-11-28 07:47:00,44.2,40.5,30.29,SSW,202,0.0,0.0,91,0.00,,,0.00,JAVA,2013-11-28 12:47:00,
2013-11-28 07:53:00,44.6,40.7,30.29,SW,225,0.0,0.1,91,0.00,,,0.00,JAVA,2013-11-28 12:53:00,
2013-11-28 07:58:00,45.1,41.0,30.29,WNW,292,0.1,0.3,91,0.00,,,0.00,JAVA,2013-11-28 12:58:00,
2013-11-28 08:03:00,45.5,41.3,30.29,West,270,0.0,0.2,90,0.00,,,0.00,JAVA,2013-11-28 13:03:00,
2013-11-28 08:08:00,46.1,41.6,30.28,NNE,22,0.0,0.4,90,0.00,,,0.00,JAVA,2013-11-28 13:08:00,
2013-11-28 08:13:00,46.4,41.9,30.29,West,270,0.0,0.0,90,0.00,,,0.00,JAVA,2013-11-28 13:13:00,
2013-11-28 08:18:00,47.0,42.3,30.29,SSE,157,0.0,0.0,89,0.00,,,0.00,JAVA,2013-11-28 13:18:00,
2013-11-28 08:23:00,47.5,42.6,30.29,NW,315,0.2,0.2,89,0.00,,,0.00,JAVA,2013-11-28 13:23:00,
2013-11-28 08:29:00,47.9,43.0,30.29,West,270,0.0,0.0,88,0.00,,,0.00,JAVA,2013-11-28 13:29:00,
2013-11-28 08:34:00,48.4,43.3,30.29,NW,315,0.0,0.0,87,0.00,,,0.00,JAVA,2013-11-28 13:34:00,
2013-11-28 08:39:00,49.0,43.7,30.29,West,270,0.0,0.2,87,0.00,,,0.00,JAVA,2013-11-28 13:39:00,
2013-11-28 08:44:00,49.6,44.0,30.29,West,270,0.0,0.0,86,0.00,,,0.00,JAVA,2013-11-28 13:44:00,
2013-11-28 08:49:00,50.1,44.4,30.30,WNW,292,0.0,0.0,85,0.00,,,0.00,JAVA,2013-11-28 13:49:00,
2013-11-28 08:54:00,50.6,44.7,30.30,NNW,337,0.1,0.3,84,0.00,,,0.00,JAVA,2013-11-28 13:54:00,
2013-11-28 08:59:00,51.0,45.0,30.31,NW,315,0.1,0.5,83,0.00,,,0.00,JAVA,2013-11-28 13:59:00,
2013-11-28 09:04:00,51.5,45.2,30.31,NW,315,0.2,0.7,82,0.00,,,0.00,JAVA,2013-11-28 14:04:00,
2013-11-28 09:10:00,51.7,45.5,30.31,NW,315,0.2,1.1,82,0.00,,,0.00,JAVA,2013-11-28 14:10:00,
2013-11-28 09:15:00,52.3,45.7,30.31,NW,315,0.1,0.7,81,0.00,,,0.00,JAVA,2013-11-28 14:15:00,
2013-11-28 09:20:00,52.8,45.9,30.31,WNW,292,0.3,2.0,80,0.00,,,0.00,JAVA,2013-11-28 14:20:00,
2013-11-28 09:25:00,53.3,46.1,30.32,ESE,112,0.4,1.6,80,0.00,,,0.00,JAVA,2013-11-28 14:25:00,
2013-11-28 09:30:00,53.5,46.3,30.31,West,270,0.1,0.5,79,0.00,,,0.00,JAVA,2013-11-28 14:30:00,
2013-11-28 09:35:00,53.9,46.5,30.31,NW,315,0.4,2.2,78,0.00,,,0.00,JAVA,2013-11-28 14:35:00,
2013-11-28 09:40:00,54.4,46.6,30.31,ENE,67,0.0,0.0,77,0.00,,,0.00,JAVA,2013-11-28 14:40:00,
2013-11-28 09:46:00,54.8,46.8,30.31,NNE,22,0.3,1.2,77,0.00,,,0.00,JAVA,2013-11-28 14:46:00,
2013-11-28 09:51:00,55.1,46.9,30.31,WSW,247,0.2,1.3,76,0.00,,,0.00,JAVA,2013-11-28 14:51:00,
2013-11-28 09:56:00,55.6,47.1,30.31,NNW,337,0.3,0.8,75,0.00,,,0.00,JAVA,2013-11-28 14:56:00,
2013-11-28 10:01:00,56.3,47.3,30.31,WNW,292,0.1,0.4,74,0.00,,,0.00,JAVA,2013-11-28 15:01:00,
2013-11-28 10:06:00,56.6,47.4,30.32,West,270,0.9,2.8,74,0.00,,,0.00,JAVA,2013-11-28 15:06:00,
2013-11-28 10:11:00,57.1,47.6,30.31,WNW,292,0.4,1.2,73,0.00,,,0.00,JAVA,2013-11-28 15:11:00,
2013-11-28 10:16:00,57.5,47.8,30.31,NW,315,0.2,0.9,72,0.00,,,0.00,JAVA,2013-11-28 15:16:00,
2013-11-28 10:21:00,58.0,48.0,30.31,North,0,0.1,1.0,72,0.00,,,0.00,JAVA,2013-11-28 15:21:00,
2013-11-28 10:27:00,58.6,48.2,30.31,NNW,337,0.9,4.5,71,0.00,,,0.00,JAVA,2013-11-28 15:27:00,
2013-11-28 10:32:00,58.9,48.5,30.31,NW,315,0.6,1.6,71,0.00,,,0.00,JAVA,2013-11-28 15:32:00,
2013-11-28 10:37:00,58.9,48.7,30.31,North,0,0.2,0.7,70,0.00,,,0.00,JAVA,2013-11-28 15:37:00,
2013-11-28 10:42:00,59.1,48.9,30.31,WSW,247,1.0,2.9,70,0.00,,,0.00,JAVA,2013-11-28 15:42:00,
2013-11-28 10:47:00,59.6,49.0,30.31,North,0,0.5,1.5,70,0.00,,,0.00,JAVA,2013-11-28 15:47:00,
2013-11-28 10:52:00,59.8,49.2,30.31,West,270,0.6,1.6,69,0.00,,,0.00,JAVA,2013-11-28 15:52:00,
2013-11-28 10:57:00,60.5,49.3,30.31,NNE,22,0.1,0.2,69,0.00,,,0.00,JAVA,2013-11-28 15:57:00,
2013-11-28 11:02:00,60.9,49.5,30.31,NNW,337,0.1,1.1,69,0.00,,,0.00,JAVA,2013-11-28 16:02:00,
2013-11-28 11:08:00,61.4,49.8,30.30,NE,45,0.5,3.0,68,0.00,,,0.00,JAVA,2013-11-28 16:08:00,
2013-11-28 11:13:00,61.5,50.0,30.30,North,0,0.9,3.7,68,0.00,,,0.00,JAVA,2013-11-28 16:13:00,
2013-11-28 11:18:00,61.6,50.2,30.30,NNE,22,0.7,2.8,68,0.00,,,0.00,JAVA,2013-11-28 16:18:00,
2013-11-28 11:23:00,61.8,50.4,30.31,SSW,202,0.5,2.5,68,0.00,,,0.00,JAVA,2013-11-28 16:23:00,
2013-11-28 11:28:00,62.2,50.6,30.30,North,0,1.0,2.3,68,0.00,,,0.00,JAVA,2013-11-28 16:28:00,
2013-11-28 11:33:00,62.3,50.9,30.30,NNE,22,0.4,1.5,68,0.00,,,0.00,JAVA,2013-11-28 16:33:00,
2013-11-28 11:38:00,62.5,51.1,30.30,NNE,22,1.0,2.4,68,0.00,,,0.00,JAVA,2013-11-28 16:38:00,
2013-11-28 11:43:00,62.8,51.3,30.30,NNW,337,1.1,4.6,68,0.00,,,0.00,JAVA,2013-11-28 16:43:00,
2013-11-28 11:48:00,62.9,51.5,30.30,NNW,337,0.7,2.0,68,0.00,,,0.00,JAVA,2013-11-28 16:48:00,
2013-11-28 11:53:00,63.5,51.7,30.30,ENE,67,0.8,1.9,68,0.00,,,0.00,JAVA,2013-11-28 16:53:00,
2013-11-28 11:59:00,63.6,51.9,30.30,North,0,0.6,1.5,68,0.00,,,0.00,JAVA,2013-11-28 16:59:00,
2013-11-28 12:04:00,64.0,52.2,30.30,West,270,0.6,2.4,69,0.00,,,0.00,JAVA,2013-11-28 17:04:00,
2013-11-28 12:09:00,64.0,52.4,30.30,NW,315,1.3,3.4,69,0.00,,,0.00,JAVA,2013-11-28 17:09:00,
2013-11-28 12:14:00,64.3,52.7,30.28,North,0,0.8,2.1,69,0.00,,,0.00,JAVA,2013-11-28 17:14:00,
2013-11-28 12:19:00,64.5,53.0,30.29,NNW,337,0.3,1.2,69,0.00,,,0.00,JAVA,2013-11-28 17:19:00,
2013-11-28 12:24:00,64.6,53.3,30.28,NW,315,0.7,1.9,69,0.00,,,0.00,JAVA,2013-11-28 17:24:00,
2013-11-28 12:29:00,64.3,53.5,30.28,North,0,1.1,3.7,69,0.00,,,0.00,JAVA,2013-11-28 17:29:00,
2013-11-28 12:34:00,64.4,53.7,30.27,NW,315,1.0,3.8,69,0.00,,,0.00,JAVA,2013-11-28 17:34:00,
2013-11-28 12:39:00,64.9,53.9,30.27,NW,315,0.8,3.6,69,0.00,,,0.00,JAVA,2013-11-28 17:39:00,
2013-11-28 12:44:00,65.2,54.1,30.28,NNW,337,1.3,2.9,69,0.00,,,0.00,JAVA,2013-11-28 17:44:00,
2013-11-28 12:49:00,65.0,54.2,30.28,NNW,337,3.0,5.3,69,0.00,,,0.00,JAVA,2013-11-28 17:49:00,
2013-11-28 12:55:00,65.4,54.3,30.27,NNW,337,2.2,4.9,69,0.00,,,0.00,JAVA,2013-11-28 17:55:00,
2013-11-28 13:00:00,66.1,54.5,30.26,North,0,0.7,1.6,69,0.00,,,0.00,JAVA,2013-11-28 18:00:00,
2013-11-28 13:05:00,66.1,54.6,30.27,NNW,337,0.3,1.4,68,0.00,,,0.00,JAVA,2013-11-28 18:05:00,
2013-11-28 13:10:00,65.9,54.8,30.27,North,0,0.3,0.6,68,0.00,,,0.00,JAVA,2013-11-28 18:10:00,
2013-11-28 13:15:00,66.3,55.0,30.27,North,0,0.3,0.8,68,0.00,,,0.00,JAVA,2013-11-28 18:15:00,
2013-11-28 13:20:00,66.8,55.2,30.27,NNW,337,0.6,1.8,68,0.00,,,0.00,JAVA,2013-11-28 18:20:00,
2013-11-28 13:25:00,67.0,55.4,30.26,NNE,22,0.7,2.6,68,0.00,,,0.00,JAVA,2013-11-28 18:25:00,
2013-11-28 13:30:00,66.8,55.6,30.26,North,0,0.8,2.5,68,0.00,,,0.00,JAVA,2013-11-28 18:30:00,
2013-11-28 13:35:00,66.7,55.7,30.26,WNW,292,0.5,2.7,68,0.00,,,0.00,JAVA,2013-11-28 18:35:00,
2013-11-28 13:40:00,66.4,55.8,30.26,WSW,247,0.5,1.2,68,0.00,,,0.00,JAVA,2013-11-28 18:40:00,
2013-11-28 13:46:00,66.5,55.8,30.26,NNW,337,0.3,5.9,68,0.00,,,0.00,JAVA,2013-11-28 18:46:00,
2013-11-28 13:51:00,66.5,55.8,30.25,North,0,0.6,2.0,67,0.00,,,0.00,JAVA,2013-11-28 18:51:00,
2013-11-28 13:56:00,66.3,55.8,30.25,NW,315,0.9,2.0,67,0.00,,,0.00,JAVA,2013-11-28 18:56:00,
2013-11-28 14:01:00,66.3,55.8,30.26,North,0,0.7,1.9,67,0.00,,,0.00,JAVA,2013-11-28 19:01:00,
2013-11-28 14:06:00,66.8,55.7,30.25,NW,315,0.5,1.8,67,0.00,,,0.00,JAVA,2013-11-28 19:06:00,
2013-11-28 14:11:00,66.7,55.7,30.25,NE,45,0.8,3.0,67,0.00,,,0.00,JAVA,2013-11-28 19:11:00,
2013-11-28 14:16:00,67.3,55.7,30.25,NNE,22,0.5,1.6,67,0.00,,,0.00,JAVA,2013-11-28 19:16:00,
2013-11-28 14:21:00,68.0,55.7,30.25,NW,315,0.5,1.2,66,0.00,,,0.00,JAVA,2013-11-28 19:21:00,
2013-11-28 14:26:00,68.3,55.8,30.25,North,0,0.3,1.4,66,0.00,,,0.00,JAVA,2013-11-28 19:26:00,
2013-11-28 14:31:00,68.8,56.0,30.25,NNE,22,0.4,1.7,66,0.00,,,0.00,JAVA,2013-11-28 19:31:00,
2013-11-28 14:37:00,68.8,56.1,30.25,North,0,0.2,0.3,65,0.00,,,0.00,JAVA,2013-11-28 19:37:00,
2013-11-28 14:42:00,69.4,56.3,30.25,North,0,0.2,1.3,63,0.00,,,0.00,JAVA,2013-11-28 19:42:00,
2013-11-28 14:47:00,69.6,56.3,30.25,NE,45,0.4,1.8,61,0.00,,,0.00,JAVA,2013-11-28 19:47:00,
2013-11-28 14:52:00,69.7,56.3,30.25,SW,225,0.3,1.5,59,0.00,,,0.00,JAVA,2013-11-28 19:52:00,
2013-11-28 14:57:00,70.1,56.1,30.26,East,90,0.2,0.9,57,0.00,,,0.00,JAVA,2013-11-28 19:57:00,
2013-11-28 15:02:00,69.6,55.8,30.26,NE,45,0.1,0.4,55,0.00,,,0.00,JAVA,2013-11-28 20:02:00,
2013-11-28 15:07:00,68.6,55.3,30.26,NNE,22,0.3,1.3,54,0.00,,,0.00,JAVA,2013-11-28 20:07:00,
2013-11-28 15:12:00,68.6,54.6,30.26,NNE,22,0.1,0.7,52,0.00,,,0.00,JAVA,2013-11-28 20:12:00,
2013-11-28 15:17:00,68.8,53.9,30.26,ENE,67,0.4,1.4,52,0.00,,,0.00,JAVA,2013-11-28 20:17:00,
2013-11-28 15:22:00,69.1,53.2,30.26,NNE,22,0.3,1.1,52,0.00,,,0.00,JAVA,2013-11-28 20:22:00,
2013-11-28 15:27:00,69.5,52.6,30.26,North,0,0.2,1.0,52,0.00,,,0.00,JAVA,2013-11-28 20:27:00,
2013-11-28 15:33:00,69.1,52.1,30.26,East,90,0.3,1.7,52,0.00,,,0.00,JAVA,2013-11-28 20:33:00,
2013-11-28 15:38:00,69.2,51.7,30.26,NNE,22,0.9,3.4,53,0.00,,,0.00,JAVA,2013-11-28 20:38:00,
2013-11-28 15:43:00,69.0,51.4,30.26,NNW,337,0.3,1.1,53,0.00,,,0.00,JAVA,2013-11-28 20:43:00,
2013-11-28 15:48:00,68.8,51.2,30.25,NNW,337,0.2,0.9,54,0.00,,,0.00,JAVA,2013-11-28 20:48:00,
2013-11-28 15:53:00,68.9,51.3,30.26,NNW,337,0.4,1.7,54,0.00,,,0.00,JAVA,2013-11-28 20:53:00,
2013-11-28 15:58:00,69.0,51.4,30.25,North,0,0.1,0.1,54,0.00,,,0.00,JAVA,2013-11-28 20:58:00,
2013-11-28 16:03:00,69.2,51.6,30.26,North,0,0.0,0.7,54,0.00,,,0.00,JAVA,2013-11-28 21:03:00,
2013-11-28 16:08:00,69.1,51.8,30.25,NW,315,0.0,0.2,54,0.00,,,0.00,JAVA,2013-11-28 21:08:00,
2013-11-28 16:13:00,69.1,51.9,30.26,ESE,112,0.0,0.4,55,0.00,,,0.00,JAVA,2013-11-28 21:13:00,
2013-11-28 16:18:00,68.9,52.0,30.26,NW,315,0.0,0.0,54,0.00,,,0.00,JAVA,2013-11-28 21:18:00,
2013-11-28 16:23:00,68.4,52.0,30.27,NW,315,0.0,0.1,54,0.00,,,0.00,JAVA,2013-11-28 21:23:00,
2013-11-28 16:29:00,68.1,52.0,30.27,SW,225,0.1,0.5,54,0.00,,,0.00,JAVA,2013-11-28 21:29:00,
2013-11-28 16:34:00,68.1,51.9,30.26,South,180,0.0,0.0,54,0.00,,,0.00,JAVA,2013-11-28 21:34:00,
2013-11-28 16:39:00,67.9,51.8,30.26,NW,315,0.0,0.1,54,0.00,,,0.00,JAVA,2013-11-28 21:39:00,
2013-11-28 16:44:00,67.8,51.7,30.27,SW,225,0.0,0.0,54,0.00,,,0.00,JAVA,2013-11-28 21:44:00,
2013-11-28 16:49:00,67.6,51.5,30.27,NW,315,0.0,0.0,54,0.00,,,0.00,JAVA,2013-11-28 21:49:00,
2013-11-28 16:54:00,67.4,51.3,30.27,East,90,0.0,0.0,54,0.00,,,0.00,JAVA,2013-11-28 21:54:00,
2013-11-28 17:00:00,67.3,51.0,30.27,North,0,0.1,1.2,54,0.00,,,0.00,JAVA,2013-11-28 22:00:00,
2013-11-28 17:05:00,67.3,50.8,30.28,NW,315,0.2,1.3,53,0.00,,,0.00,JAVA,2013-11-28 22:05:00,
2013-11-28 17:10:00,67.2,50.6,30.28,North,0,0.0,0.0,54,0.00,,,0.00,JAVA,2013-11-28 22:10:00,
2013-11-28 17:15:00,67.1,50.5,30.28,SSW,202,0.0,0.0,53,0.00,,,0.00,JAVA,2013-11-28 22:15:00,
2013-11-28 17:20:00,66.9,50.3,30.29,North,0,0.0,0.0,53,0.00,,,0.00,JAVA,2013-11-28 22:20:00,
2013-11-28 17:25:00,66.8,50.2,30.29,NE,45,0.1,0.4,53,0.00,,,0.00,JAVA,2013-11-28 22:25:00,
2013-11-28 17:30:00,66.7,50.0,30.28,NW,315,0.1,0.6,53,0.00,,,0.00,JAVA,2013-11-28 22:30:00,
2013-11-28 17:35:00,66.7,49.9,30.29,North,0,0.0,0.0,53,0.00,,,0.00,JAVA,2013-11-28 22:35:00,
2013-11-28 17:40:00,66.5,49.8,30.29,SW,225,0.0,0.0,53,0.00,,,0.00,JAVA,2013-11-28 22:40:00,
2013-11-28 17:45:00,66.5,49.7,30.29,WSW,247,0.0,0.0,54,0.00,,,0.00,JAVA,2013-11-28 22:45:00,
2013-11-28 17:50:00,66.4,49.6,30.29,NW,315,0.0,0.0,54,0.00,,,0.00,JAVA,2013-11-28 22:50:00,
2013-11-28 17:56:00,66.5,49.5,30.30,NW,315,0.0,0.0,54,0.00,,,0.00,JAVA,2013-11-28 22:56:00,
2013-11-28 18:01:00,66.7,49.6,30.30,West,270,0.0,0.0,55,0.00,,,0.00,JAVA,2013-11-28 23:01:00,
2013-11-28 18:06:00,66.8,49.6,30.30,NNW,337,0.1,0.8,55,0.00,,,0.00,JAVA,2013-11-28 23:06:00,
2013-11-28 18:11:00,66.9,49.8,30.30,North,0,0.1,0.5,56,0.00,,,0.00,JAVA,2013-11-28 23:11:00,
2013-11-28 18:16:00,67.1,50.0,30.31,WNW,292,0.1,0.3,56,0.00,,,0.00,JAVA,2013-11-28 23:16:00,
2013-11-28 18:21:00,66.7,50.2,30.30,North,0,0.7,2.7,57,0.00,,,0.00,JAVA,2013-11-28 23:21:00,
2013-11-28 18:26:00,65.3,50.4,30.30,NNW,337,0.2,0.6,59,0.00,,,0.00,JAVA,2013-11-28 23:26:00,
2013-11-28 18:31:00,64.3,50.6,30.30,SW,225,0.1,0.8,61,0.00,,,0.00,JAVA,2013-11-28 23:31:00,
2013-11-28 18:36:00,63.6,50.8,30.30,West,270,0.6,1.9,63,0.00,,,0.00,JAVA,2013-11-28 23:36:00,
2013-11-28 18:41:00,63.2,51.0,30.31,North,0,0.5,2.3,66,0.00,,,0.00,JAVA,2013-11-28 23:41:00,
2013-11-28 18:46:00,62.7,51.2,30.31,NW,315,0.1,0.3,68,0.00,,,0.00,JAVA,2013-11-28 23:46:00,
2013-11-28 18:52:00,62.4,51.4,30.31,SSW,202,0.3,2.3,71,0.00,,,0.00,JAVA,2013-11-28 23:52:00,
2013-11-28 18:57:00,62.0,51.7,30.31,NW,315,0.4,1.4,73,0.00,,,0.00,JAVA,2013-11-28 23:57:00,
2013-11-28 19:02:00,61.9,52.0,30.32,NNW,337,0.3,1.0,76,0.00,,,0.00,JAVA,2013-11-29 00:02:00,
2013-11-28 19:07:00,61.8,52.4,30.32,NW,315,0.5,2.3,78,0.00,,,0.00,JAVA,2013-11-29 00:07:00,
2013-11-28 19:12:00,61.7,52.9,30.31,WNW,292,0.4,2.5,79,0.00,,,0.00,JAVA,2013-11-29 00:12:00,
2013-11-28 19:17:00,61.7,53.5,30.32,NNW,337,0.1,0.8,80,0.00,,,0.00,JAVA,2013-11-29 00:17:00,
2013-11-28 19:22:00,61.6,54.0,30.32,WSW,247,0.7,5.5,81,0.00,,,0.00,JAVA,2013-11-29 00:22:00,
2013-11-28 19:27:00,61.6,54.5,30.32,North,0,0.6,2.5,82,0.00,,,0.00,JAVA,2013-11-29 00:27:00,
2013-11-28 19:32:00,61.5,55.0,30.32,WNW,292,0.4,1.6,82,0.00,,,0.00,JAVA,2013-11-29 00:32:00,
2013-11-28 19:37:00,61.4,55.3,30.33,NE,45,0.6,2.7,82,0.00,,,0.00,JAVA,2013-11-29 00:37:00,
2013-11-28 19:43:00,61.4,55.6,30.33,North,0,0.9,3.6,82,0.00,,,0.00,JAVA,2013-11-29 00:43:00,
2013-11-28 19:48:00,61.4,55.8,30.33,WNW,292,0.4,2.2,82,0.00,,,0.00,JAVA,2013-11-29 00:48:00,
2013-11-28 19:53:00,61.3,55.9,30.33,NNW,337,0.5,2.8,82,0.00,,,0.00,JAVA,2013-11-29 00:53:00,
2013-11-28 19:58:00,61.3,55.9,30.33,North,0,0.4,1.4,82,0.00,,,0.00,JAVA,2013-11-29 00:58:00,
2013-11-28 20:03:00,61.1,55.9,30.33,NW,315,0.5,2.8,82,0.00,,,0.00,JAVA,2013-11-29 01:03:00,
2013-11-28 20:08:00,61.1,55.9,30.33,NE,45,0.3,1.6,82,0.00,,,0.00,JAVA,2013-11-29 01:08:00,
2013-11-28 20:13:00,61.0,55.8,30.33,East,90,0.2,0.9,82,0.00,,,0.00,JAVA,2013-11-29 01:13:00,
2013-11-28 20:18:00,60.9,55.8,30.33,SSW,202,0.0,0.0,82,0.00,,,0.00,JAVA,2013-11-29 01:18:00,
2013-11-28 20:23:00,60.9,55.7,30.32,WNW,292,0.1,0.7,82,0.00,,,0.00,JAVA,2013-11-29 01:23:00,
2013-11-28 20:28:00,60.9,55.7,30.33,South,180,0.1,0.1,82,0.00,,,0.00,JAVA,2013-11-29 01:28:00,
2013-11-28 20:33:00,60.8,55.6,30.32,North,0,0.4,3.6,82,0.00,,,0.00,JAVA,2013-11-29 01:33:00,
2013-11-28 20:39:00,60.8,55.6,30.32,NW,315,0.6,2.4,83,0.00,,,0.00,JAVA,2013-11-29 01:39:00,
2013-11-28 20:44:00,60.8,55.5,30.32,NNW,337,0.2,0.5,83,0.00,,,0.00,JAVA,2013-11-29 01:44:00,
2013-11-28 20:49:00,60.8,55.5,30.32,West,270,0.1,0.8,83,0.00,,,0.00,JAVA,2013-11-29 01:49:00,
2013-11-28 20:54:00,60.8,55.5,30.32,NW,315,0.1,1.4,83,0.00,,,0.00,JAVA,2013-11-29 01:54:00,
2013-11-28 20:59:00,60.8,55.5,30.32,WSW,247,0.1,0.7,83,0.00,,,0.00,JAVA,2013-11-29 01:59:00,
2013-11-28 21:04:00,60.9,55.6,30.32,North,0,0.1,0.9,83,0.00,,,0.00,JAVA,2013-11-29 02:04:00,
2013-11-28 21:09:00,60.8,55.6,30.33,NNW,337,0.2,1.3,83,0.00,,,0.00,JAVA,2013-11-29 02:09:00,
2013-11-28 21:14:00,60.7,55.6,30.32,NW,315,0.1,0.5,83,0.00,,,0.00,JAVA,2013-11-29 02:14:00,
2013-11-28 21:19:00,60.6,55.6,30.33,NW,315,0.0,0.0,84,0.00,,,0.00,JAVA,2013-11-29 02:19:00,
2013-11-28 21:24:00,60.5,55.6,30.33,West,270,0.0,0.1,84,0.00,,,0.00,JAVA,2013-11-29 02:24:00,
2013-11-28 21:29:00,60.5,55.6,30.34,NNW,337,0.1,0.2,84,0.00,,,0.00,JAVA,2013-11-29 02:29:00,
2013-11-28 21:35:00,60.6,55.6,30.34,NNE,22,0.1,0.7,84,0.00,,,0.00,JAVA,2013-11-29 02:35:00,
2013-11-28 21:40:00,60.5,55.7,30.34,SW,225,0.0,0.0,85,0.00,,,0.00,JAVA,2013-11-29 02:40:00,
2013-11-28 21:45:00,59.9,55.7,30.34,WNW,292,0.0,0.3,85,0.00,,,0.00,JAVA,2013-11-29 02:45:00,
2013-11-28 21:50:00,59.6,55.6,30.34,North,0,0.0,0.0,85,0.00,,,0.00,JAVA,2013-11-29 02:50:00,
2013-11-28 21:55:00,59.3,55.5,30.34,SW,225,0.1,0.1,85,0.00,,,0.00,JAVA,2013-11-29 02:55:00,
2013-11-28 22:00:00,59.2,55.4,30.34,West,270,0.1,1.2,85,0.00,,,0.00,JAVA,2013-11-29 03:00:00,
2013-11-28 22:05:00,59.0,55.3,30.33,SW,225,0.2,0.8,85,0.00,,,0.00,JAVA,2013-11-29 03:05:00,
2013-11-28 22:10:00,58.9,55.2,30.33,North,0,0.1,0.9,85,0.00,,,0.00,JAVA,2013-11-29 03:10:00,
2013-11-28 22:15:00,58.8,55.1,30.34,West,270,0.1,0.6,85,0.00,,,0.00,JAVA,2013-11-29 03:15:00,
2013-11-28 22:20:00,58.7,54.9,30.34,WSW,247,0.0,0.0,85,0.00,,,0.00,JAVA,2013-11-29 03:20:00,
2013-11-28 22:25:00,58.7,54.7,30.34,West,270,0.0,0.0,85,0.00,,,0.00,JAVA,2013-11-29 03:25:00,
2013-11-28 22:31:00,58.7,54.6,30.34,SW,225,0.0,0.0,85,0.00,,,0.00,JAVA,2013-11-29 03:31:00,
2013-11-28 22:36:00,58.7,54.5,30.33,West,270,0.0,0.1,85,0.00,,,0.00,JAVA,2013-11-29 03:36:00,
2013-11-28 22:41:00,58.6,54.4,30.33,WSW,247,0.0,0.0,86,0.00,,,0.00,JAVA,2013-11-29 03:41:00,
2013-11-28 22:46:00,58.3,54.4,30.34,WNW,292,0.0,0.2,86,0.00,,,0.00,JAVA,2013-11-29 03:46:00,
2013-11-28 22:51:00,58.1,54.3,30.34,NW,315,0.0,0.0,86,0.00,,,0.00,JAVA,2013-11-29 03:51:00,
2013-11-28 22:56:00,58.0,54.2,30.34,NE,45,0.0,0.1,86,0.00,,,0.00,JAVA,2013-11-29 03:56:00,
2013-11-28 23:01:00,58.0,54.2,30.33,West,270,0.0,0.0,87,0.00,,,0.00,JAVA,2013-11-29 04:01:00,
2013-11-28 23:06:00,58.0,54.1,30.33,WSW,247,0.0,0.0,87,0.00,,,0.00,JAVA,2013-11-29 04:06:00,
2013-11-28 23:11:00,58.0,54.1,30.33,SW,225,0.0,0.0,87,0.00,,,0.00,JAVA,2013-11-29 04:11:00,
2013-11-28 23:16:00,58.0,54.1,30.32,West,270,0.0,0.0,87,0.00,,,0.00,JAVA,2013-11-29 04:16:00,
2013-11-28 23:21:00,58.1,54.1,30.33,West,270,0.1,0.6,87,0.00,,,0.00,JAVA,2013-11-29 04:21:00,
2013-11-28 23:26:00,59.0,54.2,30.32,NNE,22,0.3,1.1,88,0.00,,,0.00,JAVA,2013-11-29 04:26:00,
2013-11-28 23:32:00,58.9,54.3,30.33,NW,315,0.0,0.0,88,0.00,,,0.00,JAVA,2013-11-29 04:32:00,
2013-11-28 23:37:00,58.8,54.5,30.32,North,0,0.0,0.0,88,0.00,,,0.00,JAVA,2013-11-29 04:37:00,
2013-11-28 23:42:00,58.6,54.6,30.31,NE,45,0.0,0.0,88,0.00,,,0.00,JAVA,2013-11-29 04:42:00,
2013-11-28 23:47:00,58.4,54.7,30.31,NW,315,0.0,0.0,88,0.00,,,0.00,JAVA,2013-11-29 04:47:00,
2013-11-28 23:52:00,58.4,54.9,30.31,North,0,0.0,0.0,88,0.00,,,0.00,JAVA,2013-11-29 04:52:00,
2013-11-28 23:57:00,58.4,55.0,30.32,West,270,0.0,0.0,89,0.00,,,0.00,JAVA,2013-11-29 04:57:00,